Index of /20260501/WXO-DD/model_gdps/15km/00/069
Name Last modified Size Description
Parent Directory -
20260501T00Z_MSC_GDPS_AbsoluteVorticity_IsbL-0200_LatLon0.15_PT069H.grib2 2026-05-01 04:15 1.5M
20260501T00Z_MSC_GDPS_AbsoluteVorticity_IsbL-0250_LatLon0.15_PT069H.grib2 2026-05-01 04:15 1.3M
20260501T00Z_MSC_GDPS_AbsoluteVorticity_IsbL-0500_LatLon0.15_PT069H.grib2 2026-05-01 04:15 1.4M
20260501T00Z_MSC_GDPS_AbsoluteVorticity_IsbL-0700_LatLon0.15_PT069H.grib2 2026-05-01 04:15 1.6M
20260501T00Z_MSC_GDPS_AbsoluteVorticity_IsbL-0850_LatLon0.15_PT069H.grib2 2026-05-01 04:15 1.6M
20260501T00Z_MSC_GDPS_AirTemp_AGL-120m_LatLon0.15_PT069H.grib2 2026-05-01 04:15 911K
20260501T00Z_MSC_GDPS_AirTemp_AGL-2m_LatLon0.15_PT069H.grib2 2026-05-01 04:15 1.0M
20260501T00Z_MSC_GDPS_AirTemp_AGL-40m_LatLon0.15_PT069H.grib2 2026-05-01 04:15 817K
20260501T00Z_MSC_GDPS_AirTemp_AGL-80m_LatLon0.15_PT069H.grib2 2026-05-01 04:15 922K
20260501T00Z_MSC_GDPS_AirTemp_IsbL-0001_LatLon0.15_PT069H.grib2 2026-05-01 04:15 653K
20260501T00Z_MSC_GDPS_AirTemp_IsbL-0005_LatLon0.15_PT069H.grib2 2026-05-01 04:15 687K
20260501T00Z_MSC_GDPS_AirTemp_IsbL-0010_LatLon0.15_PT069H.grib2 2026-05-01 04:15 695K
20260501T00Z_MSC_GDPS_AirTemp_IsbL-0020_LatLon0.15_PT069H.grib2 2026-05-01 04:15 789K
20260501T00Z_MSC_GDPS_AirTemp_IsbL-0030_LatLon0.15_PT069H.grib2 2026-05-01 04:15 758K
20260501T00Z_MSC_GDPS_AirTemp_IsbL-0050_LatLon0.15_PT069H.grib2 2026-05-01 04:15 816K
20260501T00Z_MSC_GDPS_AirTemp_IsbL-0100_LatLon0.15_PT069H.grib2 2026-05-01 04:15 967K
20260501T00Z_MSC_GDPS_AirTemp_IsbL-0150_LatLon0.15_PT069H.grib2 2026-05-01 04:15 1.0M
20260501T00Z_MSC_GDPS_AirTemp_IsbL-0175_LatLon0.15_PT069H.grib2 2026-05-01 04:15 958K
20260501T00Z_MSC_GDPS_AirTemp_IsbL-0200_LatLon0.15_PT069H.grib2 2026-05-01 04:15 1.0M
20260501T00Z_MSC_GDPS_AirTemp_IsbL-0225_LatLon0.15_PT069H.grib2 2026-05-01 04:15 1.0M
20260501T00Z_MSC_GDPS_AirTemp_IsbL-0250_LatLon0.15_PT069H.grib2 2026-05-01 04:15 1.0M
20260501T00Z_MSC_GDPS_AirTemp_IsbL-0275_LatLon0.15_PT069H.grib2 2026-05-01 04:15 1.0M
20260501T00Z_MSC_GDPS_AirTemp_IsbL-0300_LatLon0.15_PT069H.grib2 2026-05-01 04:15 1.0M
20260501T00Z_MSC_GDPS_AirTemp_IsbL-0350_LatLon0.15_PT069H.grib2 2026-05-01 04:15 927K
20260501T00Z_MSC_GDPS_AirTemp_IsbL-0400_LatLon0.15_PT069H.grib2 2026-05-01 04:15 940K
20260501T00Z_MSC_GDPS_AirTemp_IsbL-0450_LatLon0.15_PT069H.grib2 2026-05-01 04:15 962K
20260501T00Z_MSC_GDPS_AirTemp_IsbL-0500_LatLon0.15_PT069H.grib2 2026-05-01 04:15 1.0M
20260501T00Z_MSC_GDPS_AirTemp_IsbL-0550_LatLon0.15_PT069H.grib2 2026-05-01 04:15 802K
20260501T00Z_MSC_GDPS_AirTemp_IsbL-0600_LatLon0.15_PT069H.grib2 2026-05-01 04:15 894K
20260501T00Z_MSC_GDPS_AirTemp_IsbL-0650_LatLon0.15_PT069H.grib2 2026-05-01 04:15 917K
20260501T00Z_MSC_GDPS_AirTemp_IsbL-0700_LatLon0.15_PT069H.grib2 2026-05-01 04:15 955K
20260501T00Z_MSC_GDPS_AirTemp_IsbL-0750_LatLon0.15_PT069H.grib2 2026-05-01 04:15 1.0M
20260501T00Z_MSC_GDPS_AirTemp_IsbL-0800_LatLon0.15_PT069H.grib2 2026-05-01 04:15 1.1M
20260501T00Z_MSC_GDPS_AirTemp_IsbL-0850_LatLon0.15_PT069H.grib2 2026-05-01 04:15 1.1M
20260501T00Z_MSC_GDPS_AirTemp_IsbL-0875_LatLon0.15_PT069H.grib2 2026-05-01 04:15 1.1M
20260501T00Z_MSC_GDPS_AirTemp_IsbL-0900_LatLon0.15_PT069H.grib2 2026-05-01 04:15 1.1M
20260501T00Z_MSC_GDPS_AirTemp_IsbL-0925_LatLon0.15_PT069H.grib2 2026-05-01 04:15 1.1M
20260501T00Z_MSC_GDPS_AirTemp_IsbL-0950_LatLon0.15_PT069H.grib2 2026-05-01 04:15 1.1M
20260501T00Z_MSC_GDPS_AirTemp_IsbL-0970_LatLon0.15_PT069H.grib2 2026-05-01 04:15 1.1M
20260501T00Z_MSC_GDPS_AirTemp_IsbL-0985_LatLon0.15_PT069H.grib2 2026-05-01 04:15 1.1M
20260501T00Z_MSC_GDPS_AirTemp_IsbL-1000_LatLon0.15_PT069H.grib2 2026-05-01 04:15 1.1M
20260501T00Z_MSC_GDPS_AirTemp_IsbL-1015_LatLon0.15_PT069H.grib2 2026-05-01 04:15 1.1M
20260501T00Z_MSC_GDPS_Albedo_Sfc_LatLon0.15_PT069H.grib2 2026-05-01 04:15 242K
20260501T00Z_MSC_GDPS_CAPE_Sfc_LatLon0.15_PT069H.grib2 2026-05-01 04:15 3.9M
20260501T00Z_MSC_GDPS_CIN_Sfc_LatLon0.15_PT069H.grib2 2026-05-01 04:15 2.8M
20260501T00Z_MSC_GDPS_CloudWater_EAtm_LatLon0.15_PT069H.grib2 2026-05-01 04:15 532K
20260501T00Z_MSC_GDPS_ConvectivePrecip-Accum_Sfc_LatLon0.15_PT069H.grib2 2026-05-01 04:15 3.0M
20260501T00Z_MSC_GDPS_DewPointDepression_AGL-2m_LatLon0.15_PT069H.grib2 2026-05-01 04:15 766K
20260501T00Z_MSC_GDPS_DewPointDepression_IsbL-0010_LatLon0.15_PT069H.grib2 2026-05-01 04:15 65K
20260501T00Z_MSC_GDPS_DewPointDepression_IsbL-0020_LatLon0.15_PT069H.grib2 2026-05-01 04:15 68K
20260501T00Z_MSC_GDPS_DewPointDepression_IsbL-0030_LatLon0.15_PT069H.grib2 2026-05-01 04:15 84K
20260501T00Z_MSC_GDPS_DewPointDepression_IsbL-0050_LatLon0.15_PT069H.grib2 2026-05-01 04:15 375K
20260501T00Z_MSC_GDPS_DewPointDepression_IsbL-0100_LatLon0.15_PT069H.grib2 2026-05-01 04:15 408K
20260501T00Z_MSC_GDPS_DewPointDepression_IsbL-0150_LatLon0.15_PT069H.grib2 2026-05-01 04:15 463K
20260501T00Z_MSC_GDPS_DewPointDepression_IsbL-0175_LatLon0.15_PT069H.grib2 2026-05-01 04:15 582K
20260501T00Z_MSC_GDPS_DewPointDepression_IsbL-0200_LatLon0.15_PT069H.grib2 2026-05-01 04:15 688K
20260501T00Z_MSC_GDPS_DewPointDepression_IsbL-0225_LatLon0.15_PT069H.grib2 2026-05-01 04:15 783K
20260501T00Z_MSC_GDPS_DewPointDepression_IsbL-0250_LatLon0.15_PT069H.grib2 2026-05-01 04:15 860K
20260501T00Z_MSC_GDPS_DewPointDepression_IsbL-0275_LatLon0.15_PT069H.grib2 2026-05-01 04:15 877K
20260501T00Z_MSC_GDPS_DewPointDepression_IsbL-0300_LatLon0.15_PT069H.grib2 2026-05-01 04:15 920K
20260501T00Z_MSC_GDPS_DewPointDepression_IsbL-0350_LatLon0.15_PT069H.grib2 2026-05-01 04:15 947K
20260501T00Z_MSC_GDPS_DewPointDepression_IsbL-0400_LatLon0.15_PT069H.grib2 2026-05-01 04:15 1.0M
20260501T00Z_MSC_GDPS_DewPointDepression_IsbL-0450_LatLon0.15_PT069H.grib2 2026-05-01 04:15 1.0M
20260501T00Z_MSC_GDPS_DewPointDepression_IsbL-0500_LatLon0.15_PT069H.grib2 2026-05-01 04:15 1.0M
20260501T00Z_MSC_GDPS_DewPointDepression_IsbL-0550_LatLon0.15_PT069H.grib2 2026-05-01 04:15 1.0M
20260501T00Z_MSC_GDPS_DewPointDepression_IsbL-0600_LatLon0.15_PT069H.grib2 2026-05-01 04:15 1.0M
20260501T00Z_MSC_GDPS_DewPointDepression_IsbL-0650_LatLon0.15_PT069H.grib2 2026-05-01 04:15 1.1M
20260501T00Z_MSC_GDPS_DewPointDepression_IsbL-0700_LatLon0.15_PT069H.grib2 2026-05-01 04:15 1.1M
20260501T00Z_MSC_GDPS_DewPointDepression_IsbL-0750_LatLon0.15_PT069H.grib2 2026-05-01 04:15 1.1M
20260501T00Z_MSC_GDPS_DewPointDepression_IsbL-0800_LatLon0.15_PT069H.grib2 2026-05-01 04:15 1.2M
20260501T00Z_MSC_GDPS_DewPointDepression_IsbL-0850_LatLon0.15_PT069H.grib2 2026-05-01 04:15 1.1M
20260501T00Z_MSC_GDPS_DewPointDepression_IsbL-0875_LatLon0.15_PT069H.grib2 2026-05-01 04:15 1.1M
20260501T00Z_MSC_GDPS_DewPointDepression_IsbL-0900_LatLon0.15_PT069H.grib2 2026-05-01 04:15 1.1M
20260501T00Z_MSC_GDPS_DewPointDepression_IsbL-0925_LatLon0.15_PT069H.grib2 2026-05-01 04:15 1.0M
20260501T00Z_MSC_GDPS_DewPointDepression_IsbL-0950_LatLon0.15_PT069H.grib2 2026-05-01 04:15 1.0M
20260501T00Z_MSC_GDPS_DewPointDepression_IsbL-0970_LatLon0.15_PT069H.grib2 2026-05-01 04:15 1.0M
20260501T00Z_MSC_GDPS_DewPointDepression_IsbL-0985_LatLon0.15_PT069H.grib2 2026-05-01 04:15 1.0M
20260501T00Z_MSC_GDPS_DewPointDepression_IsbL-1000_LatLon0.15_PT069H.grib2 2026-05-01 04:15 1.0M
20260501T00Z_MSC_GDPS_DewPointDepression_IsbL-1015_LatLon0.15_PT069H.grib2 2026-05-01 04:15 916K
20260501T00Z_MSC_GDPS_DewPoint_AGL-2m_LatLon0.15_PT069H.grib2 2026-05-01 04:15 606K
20260501T00Z_MSC_GDPS_DownwardLongwaveRadiationFlux-Accum_Sfc_LatLon0.15_PT069H.grib2 2026-05-01 04:15 898K
20260501T00Z_MSC_GDPS_DownwardShortwaveRadiationFlux-Accum_NTAtm_LatLon0.15_PT069H.grib2 2026-05-01 04:15 189K
20260501T00Z_MSC_GDPS_DownwardShortwaveRadiationFlux-Accum_Sfc_LatLon0.15_PT069H.grib2 2026-05-01 04:15 1.1M
20260501T00Z_MSC_GDPS_FreezingRain-Accum1h_Sfc_LatLon0.15_PT069H.grib2 2026-05-01 04:15 35K
20260501T00Z_MSC_GDPS_FreezingRain-Accum3h_Sfc_LatLon0.15_PT069H.grib2 2026-05-01 04:15 43K
20260501T00Z_MSC_GDPS_FreezingRain-Accum_Sfc_LatLon0.15_PT069H.grib2 2026-05-01 04:15 266K
20260501T00Z_MSC_GDPS_GeopotentialHeight_IsbL-0001_LatLon0.15_PT069H.grib2 2026-05-01 04:15 417K
20260501T00Z_MSC_GDPS_GeopotentialHeight_IsbL-0005_LatLon0.15_PT069H.grib2 2026-05-01 04:15 491K
20260501T00Z_MSC_GDPS_GeopotentialHeight_IsbL-0010_LatLon0.15_PT069H.grib2 2026-05-01 04:15 484K
20260501T00Z_MSC_GDPS_GeopotentialHeight_IsbL-0020_LatLon0.15_PT069H.grib2 2026-05-01 04:15 413K
20260501T00Z_MSC_GDPS_GeopotentialHeight_IsbL-0030_LatLon0.15_PT069H.grib2 2026-05-01 04:15 571K
20260501T00Z_MSC_GDPS_GeopotentialHeight_IsbL-0050_LatLon0.15_PT069H.grib2 2026-05-01 04:15 570K
20260501T00Z_MSC_GDPS_GeopotentialHeight_IsbL-0100_LatLon0.15_PT069H.grib2 2026-05-01 04:15 608K
20260501T00Z_MSC_GDPS_GeopotentialHeight_IsbL-0150_LatLon0.15_PT069H.grib2 2026-05-01 04:15 626K
20260501T00Z_MSC_GDPS_GeopotentialHeight_IsbL-0175_LatLon0.15_PT069H.grib2 2026-05-01 04:15 628K
20260501T00Z_MSC_GDPS_GeopotentialHeight_IsbL-0200_LatLon0.15_PT069H.grib2 2026-05-01 04:15 633K
20260501T00Z_MSC_GDPS_GeopotentialHeight_IsbL-0225_LatLon0.15_PT069H.grib2 2026-05-01 04:15 638K
20260501T00Z_MSC_GDPS_GeopotentialHeight_IsbL-0250_LatLon0.15_PT069H.grib2 2026-05-01 04:15 642K
20260501T00Z_MSC_GDPS_GeopotentialHeight_IsbL-0275_LatLon0.15_PT069H.grib2 2026-05-01 04:15 641K
20260501T00Z_MSC_GDPS_GeopotentialHeight_IsbL-0300_LatLon0.15_PT069H.grib2 2026-05-01 04:15 633K
20260501T00Z_MSC_GDPS_GeopotentialHeight_IsbL-0350_LatLon0.15_PT069H.grib2 2026-05-01 04:15 629K
20260501T00Z_MSC_GDPS_GeopotentialHeight_IsbL-0400_LatLon0.15_PT069H.grib2 2026-05-01 04:15 618K
20260501T00Z_MSC_GDPS_GeopotentialHeight_IsbL-0450_LatLon0.15_PT069H.grib2 2026-05-01 04:15 610K
20260501T00Z_MSC_GDPS_GeopotentialHeight_IsbL-0500_LatLon0.15_PT069H.grib2 2026-05-01 04:15 532K
20260501T00Z_MSC_GDPS_GeopotentialHeight_IsbL-0550_LatLon0.15_PT069H.grib2 2026-05-01 04:15 525K
20260501T00Z_MSC_GDPS_GeopotentialHeight_IsbL-0600_LatLon0.15_PT069H.grib2 2026-05-01 04:15 523K
20260501T00Z_MSC_GDPS_GeopotentialHeight_IsbL-0650_LatLon0.15_PT069H.grib2 2026-05-01 04:15 689K
20260501T00Z_MSC_GDPS_GeopotentialHeight_IsbL-0700_LatLon0.15_PT069H.grib2 2026-05-01 04:15 689K
20260501T00Z_MSC_GDPS_GeopotentialHeight_IsbL-0750_LatLon0.15_PT069H.grib2 2026-05-01 04:15 689K
20260501T00Z_MSC_GDPS_GeopotentialHeight_IsbL-0800_LatLon0.15_PT069H.grib2 2026-05-01 04:15 702K
20260501T00Z_MSC_GDPS_GeopotentialHeight_IsbL-0850_LatLon0.15_PT069H.grib2 2026-05-01 04:15 708K
20260501T00Z_MSC_GDPS_GeopotentialHeight_IsbL-0875_LatLon0.15_PT069H.grib2 2026-05-01 04:15 717K
20260501T00Z_MSC_GDPS_GeopotentialHeight_IsbL-0900_LatLon0.15_PT069H.grib2 2026-05-01 04:15 722K
20260501T00Z_MSC_GDPS_GeopotentialHeight_IsbL-0925_LatLon0.15_PT069H.grib2 2026-05-01 04:15 732K
20260501T00Z_MSC_GDPS_GeopotentialHeight_IsbL-0950_LatLon0.15_PT069H.grib2 2026-05-01 04:15 738K
20260501T00Z_MSC_GDPS_GeopotentialHeight_IsbL-0970_LatLon0.15_PT069H.grib2 2026-05-01 04:15 748K
20260501T00Z_MSC_GDPS_GeopotentialHeight_IsbL-0985_LatLon0.15_PT069H.grib2 2026-05-01 04:15 764K
20260501T00Z_MSC_GDPS_GeopotentialHeight_IsbL-1000_LatLon0.15_PT069H.grib2 2026-05-01 04:15 785K
20260501T00Z_MSC_GDPS_GeopotentialHeight_IsbL-1015_LatLon0.15_PT069H.grib2 2026-05-01 04:15 806K
20260501T00Z_MSC_GDPS_Humidex_Sfc_LatLon0.15_PT069H.grib2 2026-05-01 04:15 5.3M
20260501T00Z_MSC_GDPS_IcePellets-Accum1h_Sfc_LatLon0.15_PT069H.grib2 2026-05-01 04:15 3.8K
20260501T00Z_MSC_GDPS_IcePellets-Accum3h_Sfc_LatLon0.15_PT069H.grib2 2026-05-01 04:15 4.9K
20260501T00Z_MSC_GDPS_IcePellets-Accum_Sfc_LatLon0.15_PT069H.grib2 2026-05-01 04:15 62K
20260501T00Z_MSC_GDPS_KIndex_Sfc_LatLon0.15_PT069H.grib2 2026-05-01 04:15 6.4M
20260501T00Z_MSC_GDPS_LatentHeatNetFlux_Sfc_LatLon0.15_PT069H.grib2 2026-05-01 04:15 672K
20260501T00Z_MSC_GDPS_LiftedIndex-MU-VT_IsbL-0500_LatLon0.15_PT069H.grib2 2026-05-01 04:15 5.4M
20260501T00Z_MSC_GDPS_NetLongwaveRadiationFlux-Accum_Sfc_LatLon0.15_PT069H.grib2 2026-05-01 04:15 964K
20260501T00Z_MSC_GDPS_NetShortwaveRadiationFlux-Accum_Sfc_LatLon0.15_PT069H.grib2 2026-05-01 04:15 1.1M
20260501T00Z_MSC_GDPS_O3MixingRatio_Sfc_LatLon0.15_PT069H.grib2 2026-05-01 04:50 1.9M
20260501T00Z_MSC_GDPS_O3_EAtm_LatLon0.15_PT069H.grib2 2026-05-01 04:50 2.5M
20260501T00Z_MSC_GDPS_PlanetaryBoundaryLayerHeight_Sfc_LatLon0.15_PT069H.grib2 2026-05-01 04:15 2.4M
20260501T00Z_MSC_GDPS_Precip-Accum1h_Sfc_LatLon0.15_PT069H.grib2 2026-05-01 04:15 3.2M
20260501T00Z_MSC_GDPS_Precip-Accum3h_Sfc_LatLon0.15_PT069H.grib2 2026-05-01 04:15 3.5M
20260501T00Z_MSC_GDPS_Precip-Accum_Sfc_LatLon0.15_PT069H.grib2 2026-05-01 04:15 4.8M
20260501T00Z_MSC_GDPS_PrecipRate_Sfc_LatLon0.15_PT069H.grib2 2026-05-01 04:15 3.1M
20260501T00Z_MSC_GDPS_PrecipType-Instant_Sfc_LatLon0.15_PT069H.grib2 2026-05-01 04:15 1.6M
20260501T00Z_MSC_GDPS_Pressure_MSL_LatLon0.15_PT069H.grib2 2026-05-01 04:15 721K
20260501T00Z_MSC_GDPS_Pressure_PVU-1.5_LatLon0.15_PT069H.grib2 2026-05-01 04:15 5.8M
20260501T00Z_MSC_GDPS_Pressure_PVU-1_LatLon0.15_PT069H.grib2 2026-05-01 04:15 6.0M
20260501T00Z_MSC_GDPS_Pressure_PVU-2_LatLon0.15_PT069H.grib2 2026-05-01 04:15 5.6M
20260501T00Z_MSC_GDPS_Pressure_Sfc_LatLon0.15_PT069H.grib2 2026-05-01 04:15 1.1M
20260501T00Z_MSC_GDPS_RadiativeTemp_Sfc_LatLon0.15_PT069H.grib2 2026-05-01 04:15 657K
20260501T00Z_MSC_GDPS_Rain-Accum1h_Sfc_LatLon0.15_PT069H.grib2 2026-05-01 04:15 1.6M
20260501T00Z_MSC_GDPS_Rain-Accum3h_Sfc_LatLon0.15_PT069H.grib2 2026-05-01 04:15 1.7M
20260501T00Z_MSC_GDPS_Rain-Accum_Sfc_LatLon0.15_PT069H.grib2 2026-05-01 04:15 3.6M
20260501T00Z_MSC_GDPS_RelativeHumidity_AGL-2m_LatLon0.15_PT069H.grib2 2026-05-01 04:15 1.0M
20260501T00Z_MSC_GDPS_RelativeHumidity_IsbL-0010_LatLon0.15_PT069H.grib2 2026-05-01 04:15 200K
20260501T00Z_MSC_GDPS_RelativeHumidity_IsbL-0020_LatLon0.15_PT069H.grib2 2026-05-01 04:15 171K
20260501T00Z_MSC_GDPS_RelativeHumidity_IsbL-0030_LatLon0.15_PT069H.grib2 2026-05-01 04:15 270K
20260501T00Z_MSC_GDPS_RelativeHumidity_IsbL-0050_LatLon0.15_PT069H.grib2 2026-05-01 04:15 427K
20260501T00Z_MSC_GDPS_RelativeHumidity_IsbL-0100_LatLon0.15_PT069H.grib2 2026-05-01 04:15 511K
20260501T00Z_MSC_GDPS_RelativeHumidity_IsbL-0150_LatLon0.15_PT069H.grib2 2026-05-01 04:15 657K
20260501T00Z_MSC_GDPS_RelativeHumidity_IsbL-0175_LatLon0.15_PT069H.grib2 2026-05-01 04:15 786K
20260501T00Z_MSC_GDPS_RelativeHumidity_IsbL-0200_LatLon0.15_PT069H.grib2 2026-05-01 04:15 707K
20260501T00Z_MSC_GDPS_RelativeHumidity_IsbL-0225_LatLon0.15_PT069H.grib2 2026-05-01 04:15 793K
20260501T00Z_MSC_GDPS_RelativeHumidity_IsbL-0250_LatLon0.15_PT069H.grib2 2026-05-01 04:15 866K
20260501T00Z_MSC_GDPS_RelativeHumidity_IsbL-0275_LatLon0.15_PT069H.grib2 2026-05-01 04:15 885K
20260501T00Z_MSC_GDPS_RelativeHumidity_IsbL-0300_LatLon0.15_PT069H.grib2 2026-05-01 04:15 924K
20260501T00Z_MSC_GDPS_RelativeHumidity_IsbL-0350_LatLon0.15_PT069H.grib2 2026-05-01 04:15 943K
20260501T00Z_MSC_GDPS_RelativeHumidity_IsbL-0400_LatLon0.15_PT069H.grib2 2026-05-01 04:15 970K
20260501T00Z_MSC_GDPS_RelativeHumidity_IsbL-0450_LatLon0.15_PT069H.grib2 2026-05-01 04:15 1.0M
20260501T00Z_MSC_GDPS_RelativeHumidity_IsbL-0500_LatLon0.15_PT069H.grib2 2026-05-01 04:15 1.0M
20260501T00Z_MSC_GDPS_RelativeHumidity_IsbL-0550_LatLon0.15_PT069H.grib2 2026-05-01 04:15 1.0M
20260501T00Z_MSC_GDPS_RelativeHumidity_IsbL-0600_LatLon0.15_PT069H.grib2 2026-05-01 04:15 1.1M
20260501T00Z_MSC_GDPS_RelativeHumidity_IsbL-0650_LatLon0.15_PT069H.grib2 2026-05-01 04:15 1.1M
20260501T00Z_MSC_GDPS_RelativeHumidity_IsbL-0700_LatLon0.15_PT069H.grib2 2026-05-01 04:15 1.1M
20260501T00Z_MSC_GDPS_RelativeHumidity_IsbL-0750_LatLon0.15_PT069H.grib2 2026-05-01 04:15 1.2M
20260501T00Z_MSC_GDPS_RelativeHumidity_IsbL-0800_LatLon0.15_PT069H.grib2 2026-05-01 04:15 1.2M
20260501T00Z_MSC_GDPS_RelativeHumidity_IsbL-0850_LatLon0.15_PT069H.grib2 2026-05-01 04:15 1.3M
20260501T00Z_MSC_GDPS_RelativeHumidity_IsbL-0875_LatLon0.15_PT069H.grib2 2026-05-01 04:15 1.3M
20260501T00Z_MSC_GDPS_RelativeHumidity_IsbL-0900_LatLon0.15_PT069H.grib2 2026-05-01 04:15 1.2M
20260501T00Z_MSC_GDPS_RelativeHumidity_IsbL-0925_LatLon0.15_PT069H.grib2 2026-05-01 04:15 1.2M
20260501T00Z_MSC_GDPS_RelativeHumidity_IsbL-0950_LatLon0.15_PT069H.grib2 2026-05-01 04:15 1.2M
20260501T00Z_MSC_GDPS_RelativeHumidity_IsbL-0970_LatLon0.15_PT069H.grib2 2026-05-01 04:15 1.2M
20260501T00Z_MSC_GDPS_RelativeHumidity_IsbL-0985_LatLon0.15_PT069H.grib2 2026-05-01 04:15 1.2M
20260501T00Z_MSC_GDPS_RelativeHumidity_IsbL-1000_LatLon0.15_PT069H.grib2 2026-05-01 04:15 1.1M
20260501T00Z_MSC_GDPS_RelativeHumidity_IsbL-1015_LatLon0.15_PT069H.grib2 2026-05-01 04:15 1.0M
20260501T00Z_MSC_GDPS_RelativeVorticity_IsbL-0200_LatLon0.15_PT069H.grib2 2026-05-01 04:15 1.5M
20260501T00Z_MSC_GDPS_RelativeVorticity_IsbL-0250_LatLon0.15_PT069H.grib2 2026-05-01 04:15 1.3M
20260501T00Z_MSC_GDPS_RelativeVorticity_IsbL-0500_LatLon0.15_PT069H.grib2 2026-05-01 04:15 1.4M
20260501T00Z_MSC_GDPS_RelativeVorticity_IsbL-0700_LatLon0.15_PT069H.grib2 2026-05-01 04:15 1.6M
20260501T00Z_MSC_GDPS_RelativeVorticity_IsbL-0850_LatLon0.15_PT069H.grib2 2026-05-01 04:15 1.6M
20260501T00Z_MSC_GDPS_Runoff-Accum_Sfc_LatLon0.15_PT069H.grib2 2026-05-01 04:15 150K
20260501T00Z_MSC_GDPS_SensibleHeatNetFlux_Sfc_LatLon0.15_PT069H.grib2 2026-05-01 04:15 613K
20260501T00Z_MSC_GDPS_ShowalterIndex_IsbL-0500_LatLon0.15_PT069H.grib2 2026-05-01 04:15 6.2M
20260501T00Z_MSC_GDPS_Snow-Accum1h_Sfc_LatLon0.15_PT069H.grib2 2026-05-01 04:15 1.0M
20260501T00Z_MSC_GDPS_Snow-Accum3h_Sfc_LatLon0.15_PT069H.grib2 2026-05-01 04:15 942K
20260501T00Z_MSC_GDPS_Snow-Accum_Sfc_LatLon0.15_PT069H.grib2 2026-05-01 04:15 1.9M
20260501T00Z_MSC_GDPS_SnowDensity_Sfc_LatLon0.15_PT069H.grib2 2026-05-01 04:15 263K
20260501T00Z_MSC_GDPS_SnowDepth_Sfc_LatLon0.15_PT069H.grib2 2026-05-01 04:15 1.7M
20260501T00Z_MSC_GDPS_SoilTemp_DBS-0to10cm_LatLon0.15_PT069H.grib2 2026-05-01 04:15 509K
20260501T00Z_MSC_GDPS_SoilTemp_Sfc_LatLon0.15_PT069H.grib2 2026-05-01 04:15 569K
20260501T00Z_MSC_GDPS_SoilVolumetricIceContent_Sfc_LatLon0.15_PT069H.grib2 2026-05-01 04:15 197K
20260501T00Z_MSC_GDPS_SoilVolumetricWaterContent_DBS-0to10cm_LatLon0.15_PT069H.grib2 2026-05-01 04:15 588K
20260501T00Z_MSC_GDPS_SoilVolumetricWaterContent_DBS-0to1cm_LatLon0.15_PT069H.grib2 2026-05-01 04:15 651K
20260501T00Z_MSC_GDPS_SpecificHumidity_AGL-120m_LatLon0.15_PT069H.grib2 2026-05-01 04:15 1.1M
20260501T00Z_MSC_GDPS_SpecificHumidity_AGL-2m_LatLon0.15_PT069H.grib2 2026-05-01 04:15 1.2M
20260501T00Z_MSC_GDPS_SpecificHumidity_AGL-40m_LatLon0.15_PT069H.grib2 2026-05-01 04:15 1.1M
20260501T00Z_MSC_GDPS_SpecificHumidity_AGL-80m_LatLon0.15_PT069H.grib2 2026-05-01 04:15 1.1M
20260501T00Z_MSC_GDPS_SpecificHumidity_IsbL-0001_LatLon0.15_PT069H.grib2 2026-05-01 04:15 1.3M
20260501T00Z_MSC_GDPS_SpecificHumidity_IsbL-0005_LatLon0.15_PT069H.grib2 2026-05-01 04:15 1.2M
20260501T00Z_MSC_GDPS_SpecificHumidity_IsbL-0010_LatLon0.15_PT069H.grib2 2026-05-01 04:15 1.3M
20260501T00Z_MSC_GDPS_SpecificHumidity_IsbL-0020_LatLon0.15_PT069H.grib2 2026-05-01 04:15 1.4M
20260501T00Z_MSC_GDPS_SpecificHumidity_IsbL-0030_LatLon0.15_PT069H.grib2 2026-05-01 04:15 1.3M
20260501T00Z_MSC_GDPS_SpecificHumidity_IsbL-0050_LatLon0.15_PT069H.grib2 2026-05-01 04:15 1.6M
20260501T00Z_MSC_GDPS_SpecificHumidity_IsbL-0100_LatLon0.15_PT069H.grib2 2026-05-01 04:15 1.3M
20260501T00Z_MSC_GDPS_SpecificHumidity_IsbL-0150_LatLon0.15_PT069H.grib2 2026-05-01 04:15 1.3M
20260501T00Z_MSC_GDPS_SpecificHumidity_IsbL-0175_LatLon0.15_PT069H.grib2 2026-05-01 04:15 1.3M
20260501T00Z_MSC_GDPS_SpecificHumidity_IsbL-0200_LatLon0.15_PT069H.grib2 2026-05-01 04:15 1.3M
20260501T00Z_MSC_GDPS_SpecificHumidity_IsbL-0225_LatLon0.15_PT069H.grib2 2026-05-01 04:15 1.3M
20260501T00Z_MSC_GDPS_SpecificHumidity_IsbL-0250_LatLon0.15_PT069H.grib2 2026-05-01 04:15 1.4M
20260501T00Z_MSC_GDPS_SpecificHumidity_IsbL-0275_LatLon0.15_PT069H.grib2 2026-05-01 04:15 1.3M
20260501T00Z_MSC_GDPS_SpecificHumidity_IsbL-0300_LatLon0.15_PT069H.grib2 2026-05-01 04:15 1.2M
20260501T00Z_MSC_GDPS_SpecificHumidity_IsbL-0350_LatLon0.15_PT069H.grib2 2026-05-01 04:15 1.2M
20260501T00Z_MSC_GDPS_SpecificHumidity_IsbL-0400_LatLon0.15_PT069H.grib2 2026-05-01 04:15 1.4M
20260501T00Z_MSC_GDPS_SpecificHumidity_IsbL-0450_LatLon0.15_PT069H.grib2 2026-05-01 04:15 1.6M
20260501T00Z_MSC_GDPS_SpecificHumidity_IsbL-0500_LatLon0.15_PT069H.grib2 2026-05-01 04:15 1.4M
20260501T00Z_MSC_GDPS_SpecificHumidity_IsbL-0550_LatLon0.15_PT069H.grib2 2026-05-01 04:15 1.6M
20260501T00Z_MSC_GDPS_SpecificHumidity_IsbL-0600_LatLon0.15_PT069H.grib2 2026-05-01 04:15 1.7M
20260501T00Z_MSC_GDPS_SpecificHumidity_IsbL-0650_LatLon0.15_PT069H.grib2 2026-05-01 04:15 1.5M
20260501T00Z_MSC_GDPS_SpecificHumidity_IsbL-0700_LatLon0.15_PT069H.grib2 2026-05-01 04:15 1.6M
20260501T00Z_MSC_GDPS_SpecificHumidity_IsbL-0750_LatLon0.15_PT069H.grib2 2026-05-01 04:15 1.7M
20260501T00Z_MSC_GDPS_SpecificHumidity_IsbL-0800_LatLon0.15_PT069H.grib2 2026-05-01 04:15 1.8M
20260501T00Z_MSC_GDPS_SpecificHumidity_IsbL-0850_LatLon0.15_PT069H.grib2 2026-05-01 04:15 1.9M
20260501T00Z_MSC_GDPS_SpecificHumidity_IsbL-0875_LatLon0.15_PT069H.grib2 2026-05-01 04:15 1.9M
20260501T00Z_MSC_GDPS_SpecificHumidity_IsbL-0900_LatLon0.15_PT069H.grib2 2026-05-01 04:15 1.9M
20260501T00Z_MSC_GDPS_SpecificHumidity_IsbL-0925_LatLon0.15_PT069H.grib2 2026-05-01 04:15 1.6M
20260501T00Z_MSC_GDPS_SpecificHumidity_IsbL-0950_LatLon0.15_PT069H.grib2 2026-05-01 04:15 1.6M
20260501T00Z_MSC_GDPS_SpecificHumidity_IsbL-0970_LatLon0.15_PT069H.grib2 2026-05-01 04:15 1.5M
20260501T00Z_MSC_GDPS_SpecificHumidity_IsbL-0985_LatLon0.15_PT069H.grib2 2026-05-01 04:15 1.5M
20260501T00Z_MSC_GDPS_SpecificHumidity_IsbL-1000_LatLon0.15_PT069H.grib2 2026-05-01 04:15 1.5M
20260501T00Z_MSC_GDPS_SpecificHumidity_IsbL-1015_LatLon0.15_PT069H.grib2 2026-05-01 04:15 1.4M
20260501T00Z_MSC_GDPS_SpecificHumidity_Sfc_LatLon0.15_PT069H.grib2 2026-05-01 04:15 660K
20260501T00Z_MSC_GDPS_Thickness_IsbL-0850to0700_LatLon0.15_PT069H.grib2 2026-05-01 04:15 468K
20260501T00Z_MSC_GDPS_Thickness_IsbL-1000to0500_LatLon0.15_PT069H.grib2 2026-05-01 04:15 371K
20260501T00Z_MSC_GDPS_Thickness_IsbL-1000to0850_LatLon0.15_PT069H.grib2 2026-05-01 04:15 488K
20260501T00Z_MSC_GDPS_TotalCloudCover_Sfc_LatLon0.15_PT069H.grib2 2026-05-01 04:15 823K
20260501T00Z_MSC_GDPS_TotalTotalsIndex_Sfc_LatLon0.15_PT069H.grib2 2026-05-01 04:15 6.1M
20260501T00Z_MSC_GDPS_UVIndex-ClearSky_Sfc_LatLon0.15_PT069H.grib2 2026-05-01 04:50 1.0M
20260501T00Z_MSC_GDPS_UVIndex_Sfc_LatLon0.15_PT069H.grib2 2026-05-01 04:50 1.5M
20260501T00Z_MSC_GDPS_UpwardLongwaveRadiationFlux_NTAtm_LatLon0.15_PT069H.grib2 2026-05-01 04:15 834K
20260501T00Z_MSC_GDPS_VerticalVelocity_IsbL-0200_LatLon0.15_PT069H.grib2 2026-05-01 04:15 928K
20260501T00Z_MSC_GDPS_VerticalVelocity_IsbL-0250_LatLon0.15_PT069H.grib2 2026-05-01 04:15 1.1M
20260501T00Z_MSC_GDPS_VerticalVelocity_IsbL-0500_LatLon0.15_PT069H.grib2 2026-05-01 04:15 1.0M
20260501T00Z_MSC_GDPS_VerticalVelocity_IsbL-0600_LatLon0.15_PT069H.grib2 2026-05-01 04:15 1.3M
20260501T00Z_MSC_GDPS_VerticalVelocity_IsbL-0700_LatLon0.15_PT069H.grib2 2026-05-01 04:15 1.4M
20260501T00Z_MSC_GDPS_VerticalVelocity_IsbL-0850_LatLon0.15_PT069H.grib2 2026-05-01 04:15 1.6M
20260501T00Z_MSC_GDPS_WindChill_Sfc_LatLon0.15_PT069H.grib2 2026-05-01 04:15 5.3M
20260501T00Z_MSC_GDPS_WindDir_AGL-10m_LatLon0.15_PT069H.grib2 2026-05-01 04:15 1.3M
20260501T00Z_MSC_GDPS_WindDir_AGL-120m_LatLon0.15_PT069H.grib2 2026-05-01 04:15 1.3M
20260501T00Z_MSC_GDPS_WindDir_AGL-40m_LatLon0.15_PT069H.grib2 2026-05-01 04:15 1.4M
20260501T00Z_MSC_GDPS_WindDir_AGL-80m_LatLon0.15_PT069H.grib2 2026-05-01 04:15 1.4M
20260501T00Z_MSC_GDPS_WindDir_IsbL-0001_LatLon0.15_PT069H.grib2 2026-05-01 04:15 672K
20260501T00Z_MSC_GDPS_WindDir_IsbL-0005_LatLon0.15_PT069H.grib2 2026-05-01 04:15 796K
20260501T00Z_MSC_GDPS_WindDir_IsbL-0010_LatLon0.15_PT069H.grib2 2026-05-01 04:15 840K
20260501T00Z_MSC_GDPS_WindDir_IsbL-0020_LatLon0.15_PT069H.grib2 2026-05-01 04:15 953K
20260501T00Z_MSC_GDPS_WindDir_IsbL-0030_LatLon0.15_PT069H.grib2 2026-05-01 04:15 946K
20260501T00Z_MSC_GDPS_WindDir_IsbL-0050_LatLon0.15_PT069H.grib2 2026-05-01 04:15 952K
20260501T00Z_MSC_GDPS_WindDir_IsbL-0100_LatLon0.15_PT069H.grib2 2026-05-01 04:15 1.0M
20260501T00Z_MSC_GDPS_WindDir_IsbL-0150_LatLon0.15_PT069H.grib2 2026-05-01 04:15 1.0M
20260501T00Z_MSC_GDPS_WindDir_IsbL-0175_LatLon0.15_PT069H.grib2 2026-05-01 04:15 1.0M
20260501T00Z_MSC_GDPS_WindDir_IsbL-0200_LatLon0.15_PT069H.grib2 2026-05-01 04:15 1.1M
20260501T00Z_MSC_GDPS_WindDir_IsbL-0225_LatLon0.15_PT069H.grib2 2026-05-01 04:15 1.1M
20260501T00Z_MSC_GDPS_WindDir_IsbL-0250_LatLon0.15_PT069H.grib2 2026-05-01 04:15 1.1M
20260501T00Z_MSC_GDPS_WindDir_IsbL-0275_LatLon0.15_PT069H.grib2 2026-05-01 04:15 1.2M
20260501T00Z_MSC_GDPS_WindDir_IsbL-0300_LatLon0.15_PT069H.grib2 2026-05-01 04:15 1.2M
20260501T00Z_MSC_GDPS_WindDir_IsbL-0350_LatLon0.15_PT069H.grib2 2026-05-01 04:15 1.2M
20260501T00Z_MSC_GDPS_WindDir_IsbL-0400_LatLon0.15_PT069H.grib2 2026-05-01 04:15 1.3M
20260501T00Z_MSC_GDPS_WindDir_IsbL-0450_LatLon0.15_PT069H.grib2 2026-05-01 04:15 1.3M
20260501T00Z_MSC_GDPS_WindDir_IsbL-0500_LatLon0.15_PT069H.grib2 2026-05-01 04:15 1.3M
20260501T00Z_MSC_GDPS_WindDir_IsbL-0550_LatLon0.15_PT069H.grib2 2026-05-01 04:15 1.4M
20260501T00Z_MSC_GDPS_WindDir_IsbL-0600_LatLon0.15_PT069H.grib2 2026-05-01 04:15 1.4M
20260501T00Z_MSC_GDPS_WindDir_IsbL-0650_LatLon0.15_PT069H.grib2 2026-05-01 04:15 1.5M
20260501T00Z_MSC_GDPS_WindDir_IsbL-0700_LatLon0.15_PT069H.grib2 2026-05-01 04:15 1.6M
20260501T00Z_MSC_GDPS_WindDir_IsbL-0750_LatLon0.15_PT069H.grib2 2026-05-01 04:15 1.7M
20260501T00Z_MSC_GDPS_WindDir_IsbL-0800_LatLon0.15_PT069H.grib2 2026-05-01 04:15 1.8M
20260501T00Z_MSC_GDPS_WindDir_IsbL-0850_LatLon0.15_PT069H.grib2 2026-05-01 04:15 1.9M
20260501T00Z_MSC_GDPS_WindDir_IsbL-0875_LatLon0.15_PT069H.grib2 2026-05-01 04:15 1.9M
20260501T00Z_MSC_GDPS_WindDir_IsbL-0900_LatLon0.15_PT069H.grib2 2026-05-01 04:15 2.0M
20260501T00Z_MSC_GDPS_WindDir_IsbL-0925_LatLon0.15_PT069H.grib2 2026-05-01 04:15 2.0M
20260501T00Z_MSC_GDPS_WindDir_IsbL-0950_LatLon0.15_PT069H.grib2 2026-05-01 04:15 2.0M
20260501T00Z_MSC_GDPS_WindDir_IsbL-0970_LatLon0.15_PT069H.grib2 2026-05-01 04:15 2.0M
20260501T00Z_MSC_GDPS_WindDir_IsbL-0985_LatLon0.15_PT069H.grib2 2026-05-01 04:15 2.0M
20260501T00Z_MSC_GDPS_WindDir_IsbL-1000_LatLon0.15_PT069H.grib2 2026-05-01 04:15 2.1M
20260501T00Z_MSC_GDPS_WindDir_IsbL-1015_LatLon0.15_PT069H.grib2 2026-05-01 04:15 2.0M
20260501T00Z_MSC_GDPS_WindGust-Max_AGL-10m_LatLon0.15_PT069H.grib2 2026-05-01 04:15 2.2M
20260501T00Z_MSC_GDPS_WindGust-Min_AGL-10m_LatLon0.15_PT069H.grib2 2026-05-01 04:15 2.1M
20260501T00Z_MSC_GDPS_WindGust_AGL-10m_LatLon0.15_PT069H.grib2 2026-05-01 04:15 2.1M
20260501T00Z_MSC_GDPS_WindSpeed_AGL-10m_LatLon0.15_PT069H.grib2 2026-05-01 04:15 1.1M
20260501T00Z_MSC_GDPS_WindSpeed_AGL-120m_LatLon0.15_PT069H.grib2 2026-05-01 04:15 1.2M
20260501T00Z_MSC_GDPS_WindSpeed_AGL-40m_LatLon0.15_PT069H.grib2 2026-05-01 04:15 1.2M
20260501T00Z_MSC_GDPS_WindSpeed_AGL-80m_LatLon0.15_PT069H.grib2 2026-05-01 04:15 1.2M
20260501T00Z_MSC_GDPS_WindSpeed_IsbL-0001_LatLon0.15_PT069H.grib2 2026-05-01 04:15 640K
20260501T00Z_MSC_GDPS_WindSpeed_IsbL-0005_LatLon0.15_PT069H.grib2 2026-05-01 04:15 613K
20260501T00Z_MSC_GDPS_WindSpeed_IsbL-0010_LatLon0.15_PT069H.grib2 2026-05-01 04:15 627K
20260501T00Z_MSC_GDPS_WindSpeed_IsbL-0020_LatLon0.15_PT069H.grib2 2026-05-01 04:15 668K
20260501T00Z_MSC_GDPS_WindSpeed_IsbL-0030_LatLon0.15_PT069H.grib2 2026-05-01 04:15 869K
20260501T00Z_MSC_GDPS_WindSpeed_IsbL-0050_LatLon0.15_PT069H.grib2 2026-05-01 04:15 912K
20260501T00Z_MSC_GDPS_WindSpeed_IsbL-0100_LatLon0.15_PT069H.grib2 2026-05-01 04:15 1.1M
20260501T00Z_MSC_GDPS_WindSpeed_IsbL-0150_LatLon0.15_PT069H.grib2 2026-05-01 04:15 948K
20260501T00Z_MSC_GDPS_WindSpeed_IsbL-0175_LatLon0.15_PT069H.grib2 2026-05-01 04:15 1.0M
20260501T00Z_MSC_GDPS_WindSpeed_IsbL-0200_LatLon0.15_PT069H.grib2 2026-05-01 04:15 1.1M
20260501T00Z_MSC_GDPS_WindSpeed_IsbL-0225_LatLon0.15_PT069H.grib2 2026-05-01 04:15 1.1M
20260501T00Z_MSC_GDPS_WindSpeed_IsbL-0250_LatLon0.15_PT069H.grib2 2026-05-01 04:15 1.1M
20260501T00Z_MSC_GDPS_WindSpeed_IsbL-0275_LatLon0.15_PT069H.grib2 2026-05-01 04:15 1.1M
20260501T00Z_MSC_GDPS_WindSpeed_IsbL-0300_LatLon0.15_PT069H.grib2 2026-05-01 04:15 1.1M
20260501T00Z_MSC_GDPS_WindSpeed_IsbL-0350_LatLon0.15_PT069H.grib2 2026-05-01 04:15 1.1M
20260501T00Z_MSC_GDPS_WindSpeed_IsbL-0400_LatLon0.15_PT069H.grib2 2026-05-01 04:15 1.1M
20260501T00Z_MSC_GDPS_WindSpeed_IsbL-0450_LatLon0.15_PT069H.grib2 2026-05-01 04:15 1.1M
20260501T00Z_MSC_GDPS_WindSpeed_IsbL-0500_LatLon0.15_PT069H.grib2 2026-05-01 04:15 1.1M
20260501T00Z_MSC_GDPS_WindSpeed_IsbL-0550_LatLon0.15_PT069H.grib2 2026-05-01 04:15 1.1M
20260501T00Z_MSC_GDPS_WindSpeed_IsbL-0600_LatLon0.15_PT069H.grib2 2026-05-01 04:15 1.1M
20260501T00Z_MSC_GDPS_WindSpeed_IsbL-0650_LatLon0.15_PT069H.grib2 2026-05-01 04:15 1.4M
20260501T00Z_MSC_GDPS_WindSpeed_IsbL-0700_LatLon0.15_PT069H.grib2 2026-05-01 04:15 1.5M
20260501T00Z_MSC_GDPS_WindSpeed_IsbL-0750_LatLon0.15_PT069H.grib2 2026-05-01 04:15 1.6M
20260501T00Z_MSC_GDPS_WindSpeed_IsbL-0800_LatLon0.15_PT069H.grib2 2026-05-01 04:15 1.6M
20260501T00Z_MSC_GDPS_WindSpeed_IsbL-0850_LatLon0.15_PT069H.grib2 2026-05-01 04:15 1.7M
20260501T00Z_MSC_GDPS_WindSpeed_IsbL-0875_LatLon0.15_PT069H.grib2 2026-05-01 04:15 1.8M
20260501T00Z_MSC_GDPS_WindSpeed_IsbL-0900_LatLon0.15_PT069H.grib2 2026-05-01 04:15 1.8M
20260501T00Z_MSC_GDPS_WindSpeed_IsbL-0925_LatLon0.15_PT069H.grib2 2026-05-01 04:15 1.8M
20260501T00Z_MSC_GDPS_WindSpeed_IsbL-0950_LatLon0.15_PT069H.grib2 2026-05-01 04:15 1.9M
20260501T00Z_MSC_GDPS_WindSpeed_IsbL-0970_LatLon0.15_PT069H.grib2 2026-05-01 04:15 1.9M
20260501T00Z_MSC_GDPS_WindSpeed_IsbL-0985_LatLon0.15_PT069H.grib2 2026-05-01 04:15 1.9M
20260501T00Z_MSC_GDPS_WindSpeed_IsbL-1000_LatLon0.15_PT069H.grib2 2026-05-01 04:15 1.8M
20260501T00Z_MSC_GDPS_WindSpeed_IsbL-1015_LatLon0.15_PT069H.grib2 2026-05-01 04:15 1.8M
20260501T00Z_MSC_GDPS_WindU_AGL-10m_LatLon0.15_PT069H.grib2 2026-05-01 04:15 1.3M
20260501T00Z_MSC_GDPS_WindU_AGL-120m_LatLon0.15_PT069H.grib2 2026-05-01 04:15 1.0M
20260501T00Z_MSC_GDPS_WindU_AGL-40m_LatLon0.15_PT069H.grib2 2026-05-01 04:15 1.0M
20260501T00Z_MSC_GDPS_WindU_AGL-80m_LatLon0.15_PT069H.grib2 2026-05-01 04:15 1.0M
20260501T00Z_MSC_GDPS_WindU_IsbL-0001_LatLon0.15_PT069H.grib2 2026-05-01 04:15 499K
20260501T00Z_MSC_GDPS_WindU_IsbL-0005_LatLon0.15_PT069H.grib2 2026-05-01 04:15 691K
20260501T00Z_MSC_GDPS_WindU_IsbL-0010_LatLon0.15_PT069H.grib2 2026-05-01 04:15 702K
20260501T00Z_MSC_GDPS_WindU_IsbL-0020_LatLon0.15_PT069H.grib2 2026-05-01 04:15 733K
20260501T00Z_MSC_GDPS_WindU_IsbL-0030_LatLon0.15_PT069H.grib2 2026-05-01 04:15 743K
20260501T00Z_MSC_GDPS_WindU_IsbL-0050_LatLon0.15_PT069H.grib2 2026-05-01 04:15 772K
20260501T00Z_MSC_GDPS_WindU_IsbL-0100_LatLon0.15_PT069H.grib2 2026-05-01 04:15 925K
20260501T00Z_MSC_GDPS_WindU_IsbL-0150_LatLon0.15_PT069H.grib2 2026-05-01 04:15 1.0M
20260501T00Z_MSC_GDPS_WindU_IsbL-0175_LatLon0.15_PT069H.grib2 2026-05-01 04:15 1.0M
20260501T00Z_MSC_GDPS_WindU_IsbL-0200_LatLon0.15_PT069H.grib2 2026-05-01 04:15 1.0M
20260501T00Z_MSC_GDPS_WindU_IsbL-0225_LatLon0.15_PT069H.grib2 2026-05-01 04:15 852K
20260501T00Z_MSC_GDPS_WindU_IsbL-0250_LatLon0.15_PT069H.grib2 2026-05-01 04:15 856K
20260501T00Z_MSC_GDPS_WindU_IsbL-0275_LatLon0.15_PT069H.grib2 2026-05-01 04:15 882K
20260501T00Z_MSC_GDPS_WindU_IsbL-0300_LatLon0.15_PT069H.grib2 2026-05-01 04:15 873K
20260501T00Z_MSC_GDPS_WindU_IsbL-0350_LatLon0.15_PT069H.grib2 2026-05-01 04:15 885K
20260501T00Z_MSC_GDPS_WindU_IsbL-0400_LatLon0.15_PT069H.grib2 2026-05-01 04:15 889K
20260501T00Z_MSC_GDPS_WindU_IsbL-0450_LatLon0.15_PT069H.grib2 2026-05-01 04:15 1.1M
20260501T00Z_MSC_GDPS_WindU_IsbL-0500_LatLon0.15_PT069H.grib2 2026-05-01 04:15 1.1M
20260501T00Z_MSC_GDPS_WindU_IsbL-0550_LatLon0.15_PT069H.grib2 2026-05-01 04:15 1.1M
20260501T00Z_MSC_GDPS_WindU_IsbL-0600_LatLon0.15_PT069H.grib2 2026-05-01 04:15 1.1M
20260501T00Z_MSC_GDPS_WindU_IsbL-0650_LatLon0.15_PT069H.grib2 2026-05-01 04:15 1.2M
20260501T00Z_MSC_GDPS_WindU_IsbL-0700_LatLon0.15_PT069H.grib2 2026-05-01 04:15 1.2M
20260501T00Z_MSC_GDPS_WindU_IsbL-0750_LatLon0.15_PT069H.grib2 2026-05-01 04:15 1.3M
20260501T00Z_MSC_GDPS_WindU_IsbL-0800_LatLon0.15_PT069H.grib2 2026-05-01 04:15 1.4M
20260501T00Z_MSC_GDPS_WindU_IsbL-0850_LatLon0.15_PT069H.grib2 2026-05-01 04:15 1.4M
20260501T00Z_MSC_GDPS_WindU_IsbL-0875_LatLon0.15_PT069H.grib2 2026-05-01 04:15 1.5M
20260501T00Z_MSC_GDPS_WindU_IsbL-0900_LatLon0.15_PT069H.grib2 2026-05-01 04:15 1.5M
20260501T00Z_MSC_GDPS_WindU_IsbL-0925_LatLon0.15_PT069H.grib2 2026-05-01 04:15 1.5M
20260501T00Z_MSC_GDPS_WindU_IsbL-0950_LatLon0.15_PT069H.grib2 2026-05-01 04:15 1.4M
20260501T00Z_MSC_GDPS_WindU_IsbL-0970_LatLon0.15_PT069H.grib2 2026-05-01 04:15 1.4M
20260501T00Z_MSC_GDPS_WindU_IsbL-0985_LatLon0.15_PT069H.grib2 2026-05-01 04:15 1.4M
20260501T00Z_MSC_GDPS_WindU_IsbL-1000_LatLon0.15_PT069H.grib2 2026-05-01 04:15 1.4M
20260501T00Z_MSC_GDPS_WindU_IsbL-1015_LatLon0.15_PT069H.grib2 2026-05-01 04:15 1.3M
20260501T00Z_MSC_GDPS_WindV_AGL-10m_LatLon0.15_PT069H.grib2 2026-05-01 04:15 1.6M
20260501T00Z_MSC_GDPS_WindV_AGL-120m_LatLon0.15_PT069H.grib2 2026-05-01 04:15 972K
20260501T00Z_MSC_GDPS_WindV_AGL-40m_LatLon0.15_PT069H.grib2 2026-05-01 04:15 965K
20260501T00Z_MSC_GDPS_WindV_AGL-80m_LatLon0.15_PT069H.grib2 2026-05-01 04:15 972K
20260501T00Z_MSC_GDPS_WindV_IsbL-0001_LatLon0.15_PT069H.grib2 2026-05-01 04:15 778K
20260501T00Z_MSC_GDPS_WindV_IsbL-0005_LatLon0.15_PT069H.grib2 2026-05-01 04:15 784K
20260501T00Z_MSC_GDPS_WindV_IsbL-0010_LatLon0.15_PT069H.grib2 2026-05-01 04:15 885K
20260501T00Z_MSC_GDPS_WindV_IsbL-0020_LatLon0.15_PT069H.grib2 2026-05-01 04:15 856K
20260501T00Z_MSC_GDPS_WindV_IsbL-0030_LatLon0.15_PT069H.grib2 2026-05-01 04:15 941K
20260501T00Z_MSC_GDPS_WindV_IsbL-0050_LatLon0.15_PT069H.grib2 2026-05-01 04:15 1.0M
20260501T00Z_MSC_GDPS_WindV_IsbL-0100_LatLon0.15_PT069H.grib2 2026-05-01 04:15 857K
20260501T00Z_MSC_GDPS_WindV_IsbL-0150_LatLon0.15_PT069H.grib2 2026-05-01 04:15 1.0M
20260501T00Z_MSC_GDPS_WindV_IsbL-0175_LatLon0.15_PT069H.grib2 2026-05-01 04:15 1.0M
20260501T00Z_MSC_GDPS_WindV_IsbL-0200_LatLon0.15_PT069H.grib2 2026-05-01 04:15 839K
20260501T00Z_MSC_GDPS_WindV_IsbL-0225_LatLon0.15_PT069H.grib2 2026-05-01 04:15 848K
20260501T00Z_MSC_GDPS_WindV_IsbL-0250_LatLon0.15_PT069H.grib2 2026-05-01 04:15 848K
20260501T00Z_MSC_GDPS_WindV_IsbL-0275_LatLon0.15_PT069H.grib2 2026-05-01 04:15 873K
20260501T00Z_MSC_GDPS_WindV_IsbL-0300_LatLon0.15_PT069H.grib2 2026-05-01 04:15 921K
20260501T00Z_MSC_GDPS_WindV_IsbL-0350_LatLon0.15_PT069H.grib2 2026-05-01 04:15 873K
20260501T00Z_MSC_GDPS_WindV_IsbL-0400_LatLon0.15_PT069H.grib2 2026-05-01 04:15 875K
20260501T00Z_MSC_GDPS_WindV_IsbL-0450_LatLon0.15_PT069H.grib2 2026-05-01 04:15 879K
20260501T00Z_MSC_GDPS_WindV_IsbL-0500_LatLon0.15_PT069H.grib2 2026-05-01 04:15 1.1M
20260501T00Z_MSC_GDPS_WindV_IsbL-0550_LatLon0.15_PT069H.grib2 2026-05-01 04:15 1.1M
20260501T00Z_MSC_GDPS_WindV_IsbL-0600_LatLon0.15_PT069H.grib2 2026-05-01 04:15 1.1M
20260501T00Z_MSC_GDPS_WindV_IsbL-0650_LatLon0.15_PT069H.grib2 2026-05-01 04:15 1.2M
20260501T00Z_MSC_GDPS_WindV_IsbL-0700_LatLon0.15_PT069H.grib2 2026-05-01 04:15 1.2M
20260501T00Z_MSC_GDPS_WindV_IsbL-0750_LatLon0.15_PT069H.grib2 2026-05-01 04:15 1.3M
20260501T00Z_MSC_GDPS_WindV_IsbL-0800_LatLon0.15_PT069H.grib2 2026-05-01 04:15 1.3M
20260501T00Z_MSC_GDPS_WindV_IsbL-0850_LatLon0.15_PT069H.grib2 2026-05-01 04:15 1.4M
20260501T00Z_MSC_GDPS_WindV_IsbL-0875_LatLon0.15_PT069H.grib2 2026-05-01 04:15 1.4M
20260501T00Z_MSC_GDPS_WindV_IsbL-0900_LatLon0.15_PT069H.grib2 2026-05-01 04:15 1.5M
20260501T00Z_MSC_GDPS_WindV_IsbL-0925_LatLon0.15_PT069H.grib2 2026-05-01 04:15 1.5M
20260501T00Z_MSC_GDPS_WindV_IsbL-0950_LatLon0.15_PT069H.grib2 2026-05-01 04:15 1.4M
20260501T00Z_MSC_GDPS_WindV_IsbL-0970_LatLon0.15_PT069H.grib2 2026-05-01 04:15 1.4M
20260501T00Z_MSC_GDPS_WindV_IsbL-0985_LatLon0.15_PT069H.grib2 2026-05-01 04:15 1.4M
20260501T00Z_MSC_GDPS_WindV_IsbL-1000_LatLon0.15_PT069H.grib2 2026-05-01 04:15 1.4M
20260501T00Z_MSC_GDPS_WindV_IsbL-1015_LatLon0.15_PT069H.grib2 2026-05-01 04:15 1.6M